Wind_Speed
24 23 23 22 22 22 22 23 23 24 24 24 24 23 23 23 24 24 24 23 24 25 24 26 27 27 27 26 25 25 24 23 23 23 24 22 20 20 20 22 21 21 21 20 20 19 20 20 19 18 18 19 18 18 18 17 16 16 16 16 15 15 14 14 14 14 14 14 14 13 14 14 15 15 15 15 14 14 14 14 15 16 15 15 15
25 25 24 22 22 22 22 23 24 24 24 24 24 23 23 24 24 24 24 23 24 24 23 25 26 25 25 24 24 23 23 22 22 22 23 22 21 20 20 20 20 20 20 19 19 19 19 18 19 18 18 18 19 18 18 17 16 16 15 16 16 16 14 14 13 13 13 13 13 13 13 13 13 14 14 14 13 13 12 13 15 16 15 14 14
27 27 25 23 23 23 23 23 25 25 24 24 23 23 23 24 24 23 24 23 23 23 23 24 24 23 22 22 22 21 21 21 21 21 21 22 21 20 20 19 19 19 19 18 18 18 19 18 19 18 17 17 18 17 16 16 15 14 14 15 16 16 16 15 13 12 12 12 12 13 13 12 12 12 13 13 12 11 12 13 14 15 14 13 13
29 28 26 24 23 23 23 23 25 25 25 24 23 23 22 23 23 23 23 23 22 23 22 22 22 21 21 20 20 20 20 20 19 19 19 20 20 19 19 18 18 18 18 17 17 16 17 18 18 17 16 15 16 16 15 14 14 13 13 13 13 13 14 14 13 12 11 10 10 12 12 12 11 11 12 12 12 11 11 13 14 14 13 12 14
31 29 26 24 23 23 23 24 25 26 26 25 24 23 22 22 23 22 22 23 23 23 22 21 21 20 20 20 19 18 19 19 18 18 18 18 18 18 18 17 16 16 16 16 16 15 15 15 15 15 14 13 14 15 14 13 12 12 12 11 11 11 11 12 11 12 11 9 10 10 11 11 10 11 11 11 11 11 11 13 14 14 12 12 14
32 30 27 25 24 23 23 24 25 26 26 25 24 23 22 21 22 22 21 22 22 22 21 20 19 19 19 18 18 17 17 17 17 17 17 17 17 17 16 16 15 15 15 15 15 14 13 13 12 13 12 12 13 13 12 12 12 11 10 10 10 9 10 11 10 10 9 9 10 9 9 10 10 10 10 10 11 11 11 13 14 14 13 12 14
32 30 28 26 26 24 24 25 25 26 26 25 24 23 22 21 22 22 21 22 22 21 20 18 18 17 17 16 16 16 15 15 15 16 16 16 16 16 15 15 14 14 14 13 13 12 11 11 11 11 11 10 11 11 10 10 10 9 9 9 9 9 9 11 11 10 9 8 9 9 8 9 10 10 9 9 11 12 12 13 13 13 13 12 14
32 31 28 27 27 25 24 25 25 25 26 25 25 24 23 22 22 22 21 21 22 20 18 17 16 16 15 15 15 15 14 13 14 15 14 15 15 15 14 14 13 13 12 12 11 10 10 9 9 9 9 9 9 9 8 8 8 8 8 8 7 7 8 10 11 11 10 7 7 7 7 8 10 12 9 8 10 11 12 12 13 13 13 13 13
32 30 29 28 27 26 24 25 25 24 25 25 25 25 23 22 22 22 21 21 21 19 17 17 16 15 15 15 14 14 13 12 12 13 14 14 13 13 13 12 12 11 11 10 10 9 8 7 7 7 7 7 7 7 7 6 6 5 6 6 5 4 6 8 9 9 8 8 7 6 7 7 10 12 11 10 10 10 12 11 12 12 12 12 12
31 30 30 28 27 26 24 25 25 24 24 24 24 25 24 22 22 21 21 21 20 18 16 15 15 15 14 14 14 14 13 12 11 12 13 12 12 11 11 11 10 10 9 9 8 8 7 6 6 6 5 5 5 5 5 4 4 4 4 5 4 3 4 5 6 4 3 9 10 7 8 7 8 11 11 11 12 11 11 11 11 11 11 10 11
30 30 30 28 27 25 25 25 24 25 24 24 24 24 24 23 22 21 21 21 19 17 15 14 14 14 14 14 14 13 13 12 10 10 11 11 11 10 9 9 9 8 8 7 7 6 5 5 5 4 4 4 4 3 3 3 3 2 3 4 3 2 2 3 4 0 1 10 12 8 9 9 7 9 11 11 12 13 12 12 11 10 11 10 10
29 30 29 28 27 25 25 24 24 24 24 24 24 24 24 23 22 22 21 20 18 17 15 14 14 14 15 14 14 13 12 12 10 10 10 10 9 8 8 8 7 6 6 5 5 4 3 4 4 4 4 3 3 3 2 3 2 1 1 2 2 2 1 3 3 1 2 10 10 9 10 9 9 9 11 12 13 13 12 12 11 11 11 11 12
29 30 29 28 27 26 25 24 24 23 24 24 23 23 23 23 22 22 21 19 18 17 15 15 14 14 15 14 14 12 12 11 10 9 8 8 7 7 7 7 7 5 4 4 3 3 2 3 3 3 3 3 3 2 1 1 1 1 1 1 1 1 1 3 3 1 4 5 8 11 10 9 11 12 13 13 13 12 11 11 11 12 11 11 12
28 30 29 27 27 26 25 24 24 23 23 23 23 22 22 23 22 22 21 19 18 17 16 16 15 14 14 14 13 12 11 10 10 9 8 7 6 6 6 6 6 5 4 3 2 2 2 2 2 2 2 2 2 2 1 0 1 2 1 0 0 1 1 2 2 1 2 1 6 13 12 11 11 13 13 11 12 11 10 10 10 12 12 10 11
28 30 30 27 26 26 25 24 23 22 22 22 22 21 21 22 22 22 21 20 19 18 17 17 16 15 14 13 12 11 10 10 10 9 8 7 6 6 6 6 5 4 4 3 2 2 2 2 2 3 2 2 2 2 1 1 3 3 3 2 1 1 1 1 1 1 2 1 5 11 13 13 11 13 14 11 12 12 11 10 9 10 12 11 10
27 30 29 27 26 25 25 24 23 22 21 21 21 20 20 21 21 21 20 19 19 19 18 18 17 16 14 13 12 11 11 11 10 10 9 7 7 6 6 6 5 5 4 3 3 3 3 3 3 3 2 3 3 3 2 2 3 4 4 4 3 2 2 1 1 0 2 2 4 7 12 14 12 12 14 12 12 13 13 11 9 9 10 10 10
27 29 29 26 26 25 24 24 23 22 22 21 21 20 20 21 20 20 20 18 18 19 17 17 18 16 14 12 12 12 10 10 10 10 9 8 7 6 6 5 5 5 4 4 3 3 4 4 4 3 4 4 4 2 2 3 3 4 5 5 4 3 3 2 1 1 2 3 3 5 9 14 13 12 13 14 13 14 15 12 11 10 10 10 10
27 29 28 26 25 24 24 24 23 23 22 21 21 21 20 21 21 21 20 19 19 19 17 17 17 16 14 12 12 11 11 10 10 9 9 9 7 6 5 5 5 5 5 5 4 5 5 4 4 5 5 4 3 3 3 4 4 4 6 6 6 5 4 4 3 2 2 3 3 4 8 13 14 13 13 14 13 14 15 14 13 12 11 11 12
27 28 28 27 26 24 24 23 23 23 23 22 21 21 20 20 20 20 20 18 19 18 16 16 15 15 13 11 11 11 11 10 10 9 10 10 9 7 6 5 5 6 6 6 5 6 5 5 5 5 5 4 4 4 4 5 5 5 6 7 7 7 7 7 6 5 4 4 4 5 7 11 13 13 13 14 14 13 15 15 14 14 14 14 13
26 27 27 27 27 26 25 24 24 23 23 23 22 21 20 20 19 18 18 18 17 16 16 15 14 14 12 11 10 10 11 10 10 10 10 10 10 9 7 6 7 7 7 7 7 6 5 6 6 5 5 5 5 6 6 6 6 5 5 6 7 8 9 9 9 8 7 6 5 6 7 9 11 12 13 14 14 13 14 15 15 15 15 16 15
23 25 26 26 26 25 25 24 24 24 23 22 21 21 19 18 18 17 17 16 16 15 15 14 14 13 12 11 10 11 11 11 11 11 11 11 10 9 8 7 8 8 8 8 7 5 6 6 5 5 5 5 5 5 5 5 5 5 5 6 7 9 10 10 11 11 11 8 7 7 7 9 11 12 14 14 15 15 14 14 15 16 16 16 15
23 23 23 24 25 24 24 23 23 23 23 22 22 21 19 18 18 17 16 16 15 14 14 14 14 13 12 12 12 12 12 12 12 12 12 11 10 9 8 9 9 9 9 8 6 6 7 6 4 4 4 4 5 5 5 5 5 4 5 6 7 9 11 10 11 12 13 11 9 8 8 10 12 12 14 15 16 16 15 14 14 15 16 15 13
24 24 24 24 25 25 24 24 23 22 22 21 20 21 19 19 19 19 18 17 15 14 15 14 14 14 14 14 14 14 13 12 12 12 11 10 9 9 9 9 9 9 9 8 7 8 7 5 4 4 4 5 6 5 5 4 4 3 5 8 8 9 11 11 12 14 14 14 12 11 9 10 12 13 14 15 17 17 16 16 15 14 15 14 14
25 25 26 25 25 26 25 25 24 23 22 21 20 21 20 20 19 19 19 18 16 16 16 15 15 15 15 15 15 13 13 12 12 11 10 10 10 10 10 9 9 10 9 9 9 8 6 5 5 5 6 7 6 5 5 5 4 4 6 9 9 10 11 11 12 13 13 14 14 12 11 12 12 13 14 15 17 18 18 17 16 15 14 14 14
24 25 25 25 26 26 26 26 24 23 23 22 22 22 21 20 20 20 19 18 18 17 16 15 15 16 15 15 14 13 13 12 12 12 11 10 10 11 11 10 11 11 11 11 10 8 6 6 6 6 6 6 6 5 6 6 4 4 8 10 11 11 12 11 11 11 12 13 13 13 12 13 13 13 14 15 16 18 19 19 18 16 15 15 14
23 23 25 25 25 26 26 26 25 24 23 23 23 22 21 21 20 20 19 19 18 17 16 15 16 16 15 15 15 13 13 13 13 13 12 11 10 11 11 11 12 12 12 11 9 7 7 8 7 7 6 6 6 6 6 5 3 4 9 11 12 13 12 11 11 11 12 12 12 12 13 14 14 14 14 16 16 17 19 19 19 18 16 16 16
22 23 24 24 24 25 26 26 26 25 24 22 22 22 21 21 20 19 19 19 18 18 17 17 17 17 16 16 16 14 14 14 14 14 13 12 12 11 11 11 12 12 12 10 8 7 8 8 9 7 6 6 7 7 6 5 3 5 10 12 12 14 13 12 12 11 11 11 11 12 14 15 15 16 15 16 16 16 18 19 19 18 18 18 18
22 23 23 24 24 24 25 25 26 26 25 23 22 23 22 21 21 20 19 19 18 18 18 18 17 17 16 16 16 15 15 15 15 14 13 13 12 11 11 12 12 11 10 10 9 9 9 9 9 7 6 7 8 7 7 6 6 7 10 11 11 13 13 13 13 13 11 10 12 14 14 14 15 16 17 17 16 16 17 18 18 18 19 19 18
23 23 24 24 24 24 25 26 26 27 26 24 23 23 23 22 22 21 20 19 19 19 18 18 17 16 16 16 16 16 15 15 15 14 14 13 12 12 12 11 11 10 10 11 11 10 10 10 9 8 8 9 8 7 7 7 8 8 10 11 10 11 12 13 12 12 11 11 12 13 13 13 14 14 16 17 16 16 16 16 17 18 19 19 18
25 25 25 25 25 25 26 27 28 28 27 25 24 24 25 24 23 21 19 19 19 18 18 18 16 16 17 17 16 15 14 14 14 14 14 14 12 12 12 11 10 10 11 12 12 11 10 9 8 8 8 9 7 7 7 7 7 8 9 7 8 10 12 13 12 11 11 12 12 12 12 12 12 13 13 15 17 17 16 16 17 18 19 19 19
26 26 25 26 26 26 27 29 29 29 28 26 24 25 26 25 23 20 19 19 18 18 18 17 16 16 16 16 16 15 14 14 14 14 14 14 13 13 13 12 11 11 12 12 11 11 10 8 8 7 7 7 6 6 7 7 7 7 7 3 4 8 10 10 10 9 10 11 11 12 11 10 11 12 12 14 17 17 17 16 17 18 18 19 20
26 27 26 26 26 28 28 29 30 29 29 27 25 25 26 26 23 21 20 20 19 19 19 17 16 17 16 16 16 15 15 15 14 14 14 13 12 13 13 13 13 12 13 13 11 10 9 8 8 8 6 6 6 6 7 7 8 8 8 4 2 5 8 8 8 8 9 10 10 11 11 9 10 11 12 14 16 17 17 17 17 18 19 19 20
27 28 26 26 26 28 28 28 29 29 29 27 25 25 26 26 24 22 21 22 20 19 19 17 16 16 16 16 15 16 16 16 16 15 14 12 12 14 15 17 16 14 14 14 12 11 9 8 8 8 5 6 6 5 6 8 8 8 8 5 1 3 4 7 8 7 8 9 8 9 8 8 9 10 11 14 14 15 17 17 18 18 19 19 20
27 27 26 27 27 27 27 27 28 29 29 27 25 25 26 26 25 23 22 22 22 20 19 18 17 16 16 16 16 16 16 16 16 14 14 13 14 16 18 19 17 15 15 14 13 11 8 7 7 7 6 6 6 5 5 7 7 7 7 7 3 2 3 3 6 5 5 7 7 8 6 5 8 11 13 14 12 13 16 17 17 17 18 19 19
28 28 27 29 28 27 27 27 28 28 29 28 25 26 26 26 25 24 24 23 23 21 19 19 19 18 17 17 16 16 16 16 15 14 14 14 14 15 17 19 14 9 10 10 11 10 8 7 7 7 6 6 6 5 5 6 7 7 7 6 5 2 2 2 4 4 3 4 6 7 5 4 6 10 13 13 12 11 13 16 16 17 18 19 19
29 29 28 30 29 27 28 27 29 29 28 26 25 26 26 25 25 25 24 23 22 21 20 20 20 19 19 18 17 16 15 14 13 13 13 12 13 12 12 12 7 5 6 7 8 8 7 8 7 6 6 6 6 5 5 6 8 9 7 6 6 3 2 2 3 3 3 2 1 3 4 5 5 8 10 11 11 10 11 13 15 17 18 18 18
30 30 28 30 29 28 28 27 29 30 27 25 24 24 25 25 25 25 24 22 22 21 20 20 20 20 19 19 19 17 15 13 12 11 11 12 13 11 7 7 7 6 6 6 6 5 5 7 6 4 5 5 5 5 5 7 9 9 7 6 6 4 3 4 2 3 3 2 2 1 2 4 5 6 7 8 10 11 11 11 13 15 16 16 17
24 29 29 30 29 29 29 27 29 30 27 25 24 24 24 25 24 24 24 22 20 19 20 20 20 20 19 19 19 19 16 14 12 11 12 13 12 7 3 4 7 7 6 6 6 3 4 5 4 3 3 3 4 4 5 7 10 10 9 7 7 4 3 5 4 5 4 3 3 2 3 1 2 3 4 5 8 10 11 11 12 13 14 15 15
18 23 31 30 28 30 29 27 29 30 27 24 23 24 24 25 24 22 22 22 20 20 21 21 22 21 19 18 18 20 19 16 14 14 15 15 10 5 2 3 7 7 7 6 4 2 2 3 2 1 2 3 3 4 5 8 11 11 10 9 9 7 5 4 4 5 5 4 4 4 4 4 3 3 4 4 6 8 10 11 12 13 13 14 14
18 18 28 31 27 30 29 27 29 29 27 24 23 25 25 25 24 22 22 22 21 22 22 22 23 23 21 19 18 19 20 18 17 16 17 16 11 6 3 4 7 7 6 6 5 3 2 2 1 2 4 5 5 6 7 9 12 12 11 11 11 10 8 6 5 6 5 4 5 5 4 4 5 6 5 5 6 6 8 10 12 13 13 13 13
21 19 24 30 28 29 29 28 29 29 27 26 25 26 26 26 25 24 23 22 22 22 23 23 23 23 21 20 19 18 18 19 20 18 17 17 14 9 5 5 6 6 5 6 6 5 4 4 4 5 7 7 7 8 8 9 10 10 9 11 12 10 9 8 7 7 5 4 5 5 5 6 7 8 7 5 6 6 6 8 11 12 12 12 12
27 23 24 30 30 29 30 30 30 30 28 28 27 26 26 27 25 25 24 22 21 21 22 23 23 23 21 21 21 20 18 18 18 17 16 18 17 12 9 6 5 5 6 6 6 6 7 7 7 6 7 7 8 7 7 7 6 5 6 8 10 9 8 7 6 6 4 3 3 4 5 7 8 8 4 3 5 5 5 6 8 11 11 10 11
31 30 28 29 31 31 31 31 31 32 30 29 30 27 26 26 24 24 24 22 22 21 20 20 21 20 18 22 24 23 20 18 16 16 16 18 18 16 13 10 7 6 6 7 8 9 10 10 8 7 7 8 9 8 7 6 5 4 3 3 4 5 6 5 5 5 4 2 3 4 5 7 8 6 2 2 2 3 4 5 6 9 10 10 10
30 32 31 30 32 33 32 32 32 32 31 31 32 28 25 25 22 20 21 21 22 21 16 16 19 17 15 21 26 25 21 18 15 14 15 16 18 18 16 13 10 8 7 8 9 10 10 10 8 8 9 10 10 9 7 7 8 5 1 1 0 2 3 3 5 5 3 3 5 5 5 5 6 4 2 2 2 2 4 5 6 8 10 11 10
27 31 33 32 34 35 34 34 33 32 32 31 32 29 24 23 20 17 17 18 20 20 17 16 18 16 16 19 24 26 22 18 16 14 14 15 16 18 17 15 12 9 9 9 9 9 9 10 9 9 11 11 11 10 8 8 9 9 5 3 1 1 2 2 4 4 3 4 6 5 6 5 5 4 2 4 4 5 5 5 6 8 10 11 11
26 31 33 33 35 36 36 35 34 33 33 31 31 29 26 24 22 18 18 20 20 21 21 20 18 17 16 17 21 25 23 19 16 14 13 14 15 16 16 15 13 11 10 9 10 9 9 10 9 10 10 9 9 9 8 7 8 10 11 9 6 5 4 1 1 2 3 4 4 5 7 6 6 5 4 4 4 5 6 5 5 6 8 9 10
26 30 31 33 35 36 37 37 35 34 33 32 30 29 27 25 25 23 22 23 23 22 24 23 20 19 16 15 21 25 23 20 17 15 14 13 14 14 13 13 13 13 12 11 10 10 11 11 10 11 9 6 6 6 6 6 6 8 11 12 12 11 7 2 1 1 3 3 3 5 6 5 7 8 6 6 5 4 5 5 5 5 7 8 9
26 28 30 32 35 37 37 37 36 35 34 33 31 30 28 26 26 27 24 24 25 23 23 24 21 18 16 16 21 24 23 21 18 15 14 14 14 13 13 14 14 14 14 14 12 11 11 12 12 12 10 7 5 5 5 5 6 7 8 10 11 11 8 5 4 2 1 1 4 6 5 7 9 8 6 6 5 2 4 5 5 5 6 8 9
27 28 30 32 35 37 37 37 36 35 35 34 32 31 30 27 28 28 23 22 26 24 22 24 22 18 17 18 22 25 24 21 18 15 15 14 14 14 14 15 17 15 14 15 15 13 12 12 12 11 11 8 6 6 6 6 8 8 9 10 10 9 8 5 4 3 1 1 3 3 5 8 8 7 6 6 5 3 2 3 5 6 6 6 7
28 29 30 32 34 35 35 35 35 35 35 33 31 31 31 28 28 29 24 18 22 26 25 23 19 17 17 20 24 26 24 22 18 16 16 15 15 16 16 17 18 16 14 14 15 15 13 11 10 10 10 9 8 7 7 8 10 10 10 10 9 8 8 5 4 5 2 1 3 4 6 7 6 7 8 6 5 5 4 3 3 5 6 6 6
27 28 29 32 34 34 34 34 34 34 34 32 30 31 32 29 27 30 26 19 18 23 26 23 17 14 15 20 25 26 24 22 19 18 18 18 18 17 16 17 18 16 14 13 14 16 14 11 9 9 9 9 9 9 9 10 11 13 13 11 10 9 9 9 9 8 6 4 2 4 7 6 6 8 7 5 6 6 5 4 3 4 5 6 6
Wind_Direction
162 158 155 154 152 151 148 148 147 147 146 143 140 137 138 137 135 133 131 130 128 126 122 121 121 122 122 121 120 118 116 114 111 110 108 107 105 104 104 104 105 107 111 115 118 120 119 116 113 114 114 114 112 110 107 107 108 109 112 114 118 118 114 110 110 111 113 116 116 115 114 114 114 115 116 118 120 120 121 120 119 117 114 112 114
161 159 155 154 152 151 150 150 150 150 148 146 143 141 141 139 137 135 133 131 130 126 123 123 123 123 123 122 121 119 116 114 112 112 111 110 109 107 105 104 104 103 105 107 112 118 120 116 114 114 113 113 111 109 108 107 108 106 105 103 105 110 113 112 111 110 112 115 116 117 117 117 118 119 119 120 123 123 126 129 125 120 117 115 117
158 159 155 155 154 153 153 151 151 152 152 150 146 145 145 142 140 138 135 133 132 128 126 126 125 124 124 124 122 120 117 115 115 114 113 113 112 110 108 106 105 105 105 104 104 111 118 120 119 119 116 115 112 111 111 111 112 110 109 105 101 102 106 109 112 114 114 113 117 120 118 119 119 122 122 120 121 123 129 135 130 122 121 121 121
159 159 156 157 156 155 153 152 153 154 155 153 150 149 148 146 142 140 137 135 133 130 129 127 126 125 125 124 122 121 118 118 117 116 115 114 114 112 111 109 108 108 108 107 106 107 114 120 122 121 118 115 112 112 113 115 115 113 112 112 110 110 111 110 111 118 122 126 132 129 125 122 119 122 122 120 123 124 129 135 131 125 124 123 120
160 159 157 158 156 156 154 153 155 156 157 156 154 152 151 149 145 141 139 137 135 132 130 128 127 127 126 125 123 122 120 119 119 119 118 116 115 113 112 111 110 110 109 110 110 110 112 116 117 116 114 113 114 114 115 118 119 118 118 117 118 120 121 119 116 121 126 138 146 141 133 124 121 127 127 129 134 129 130 134 130 127 126 122 118
160 158 158 158 156 157 156 155 156 158 159 159 158 157 155 153 148 143 142 139 136 133 131 130 130 130 129 128 126 125 123 122 121 122 121 120 118 115 114 112 112 111 110 111 111 112 113 114 113 112 113 115 115 114 116 118 120 120 120 120 121 125 126 126 127 126 124 130 138 145 139 126 124 131 135 138 137 130 130 133 130 128 128 124 121
160 159 160 160 158 159 157 156 156 159 160 161 161 161 159 156 152 146 145 143 139 137 135 135 135 135 134 132 132 131 129 128 126 125 125 124 121 119 117 115 114 113 113 113 112 111 113 115 114 114 115 117 115 115 118 120 124 124 123 122 121 129 136 135 137 138 135 133 129 135 142 139 131 127 133 136 133 132 133 135 133 132 132 132 129
160 160 162 161 160 159 159 157 157 160 161 163 165 164 163 160 157 151 149 148 144 142 141 141 139 139 138 137 137 138 138 137 134 130 129 128 126 124 121 119 118 117 117 116 115 114 115 116 115 115 115 118 115 116 120 123 129 129 130 129 126 132 140 140 142 146 146 147 135 127 135 150 145 132 134 134 133 137 137 140 139 138 139 140 137
161 162 163 162 160 160 160 159 157 160 163 164 166 168 167 164 163 158 155 153 149 147 146 146 144 143 142 141 141 143 143 143 140 135 134 133 131 128 126 124 121 119 120 121 120 119 119 117 116 112 112 114 112 117 123 129 132 133 138 135 139 145 143 142 148 154 158 161 152 137 132 148 158 147 146 146 142 140 138 142 143 144 144 147 145
162 162 163 162 160 162 162 161 159 160 164 166 168 169 170 169 169 166 161 157 154 152 152 151 148 148 147 145 144 146 147 146 143 138 137 137 135 132 129 125 122 122 124 125 123 123 123 117 115 110 109 110 109 121 127 138 135 141 149 134 151 175 145 135 149 166 190 172 161 157 145 140 160 156 154 157 154 147 142 144 146 146 144 146 147
162 163 164 161 160 163 163 163 162 161 163 166 170 172 173 172 173 173 168 163 160 158 157 156 154 153 152 150 149 151 150 147 143 141 140 140 141 138 131 125 123 125 127 125 123 124 123 116 115 114 114 114 118 128 139 140 128 144 147 119 132 169 146 123 140 137 204 170 166 174 163 139 149 158 155 162 163 157 152 150 150 149 144 148 146
163 165 164 162 162 165 165 165 165 164 163 164 168 174 176 175 176 177 175 169 166 166 163 162 161 159 159 157 157 158 155 151 148 146 143 143 147 145 135 128 125 125 126 120 120 122 119 117 116 121 122 124 129 146 159 130 128 168 123 95 108 112 143 142 134 31 140 167 172 178 172 149 145 154 152 155 158 153 151 150 155 156 147 154 152
165 167 165 162 164 168 168 167 167 166 165 164 164 169 174 177 178 179 179 175 170 172 171 169 168 165 166 164 163 163 160 156 152 148 142 144 149 148 140 133 131 131 132 123 125 125 122 127 126 136 134 134 141 164 175 119 164 237 359 78 120 104 150 157 148 105 132 163 182 178 175 164 153 152 153 151 151 146 147 151 162 165 152 156 156
165 168 165 165 167 170 171 170 169 166 166 166 164 165 170 175 178 179 180 179 175 177 178 175 172 171 171 167 166 164 161 157 153 152 147 149 156 154 145 138 141 145 147 144 144 147 144 151 158 163 153 150 162 186 203 281 288 291 302 279 190 177 217 181 173 128 121 149 178 178 180 177 168 162 162 160 157 149 151 159 168 169 155 156 157
165 167 166 168 168 171 173 172 170 168 167 167 168 168 170 173 176 177 177 178 177 176 179 179 176 175 173 167 167 165 163 164 162 160 156 162 173 173 161 151 156 159 168 182 185 186 191 193 190 183 177 184 191 202 215 281 299 304 300 299 302 235 243 229 229 58 118 145 162 176 184 183 183 174 174 176 165 154 158 166 170 172 160 157 159
165 166 167 169 170 172 174 175 174 171 170 170 170 170 173 175 175 177 176 176 176 177 179 180 178 178 175 170 172 174 173 175 175 170 166 177 190 197 188 171 172 179 193 211 220 211 211 214 208 199 205 219 215 218 240 277 297 304 308 310 313 311 295 266 283 6 139 155 158 174 181 184 191 186 181 183 173 162 165 168 166 172 166 161 164
165 166 167 168 169 171 174 176 177 176 176 176 174 173 175 177 178 179 178 177 178 180 180 178 178 180 180 175 176 183 186 186 187 181 178 190 196 206 203 189 191 200 215 231 232 215 212 214 212 230 240 239 234 239 268 279 295 303 311 315 314 315 302 295 302 290 160 166 186 189 184 186 196 196 188 186 183 173 171 170 168 174 174 171 171
164 166 167 167 169 170 174 176 178 180 181 180 178 179 178 178 181 183 181 180 181 182 181 179 181 186 189 184 184 191 196 196 196 192 193 201 200 205 211 207 213 222 233 239 229 213 211 216 231 253 254 253 262 273 285 288 291 292 301 306 305 301 292 286 271 254 217 196 211 216 196 192 198 200 193 188 189 183 177 177 177 176 177 175 173
163 166 166 168 170 171 173 174 178 179 180 181 180 181 180 181 183 184 184 185 185 184 185 188 190 194 196 193 196 200 201 203 203 204 206 210 211 219 232 230 231 238 240 237 225 217 217 237 253 259 262 274 291 299 299 297 292 282 285 291 296 298 292 285 276 268 250 225 215 218 205 200 200 199 195 189 190 191 186 184 186 182 177 175 171
163 166 166 169 171 172 173 174 176 176 176 177 178 180 182 184 185 184 187 188 188 187 189 192 196 197 195 195 201 202 202 204 205 211 213 213 218 227 238 237 240 239 235 231 224 229 241 254 258 259 272 290 304 309 305 299 292 282 283 288 288 286 284 284 281 278 269 246 219 217 213 208 203 199 195 191 189 193 194 191 192 191 184 181 174
164 167 169 171 172 173 174 175 176 175 174 174 177 179 182 185 183 185 189 190 188 190 193 194 197 196 192 194 199 202 201 202 202 211 215 214 218 226 234 236 239 232 228 227 228 248 253 248 250 259 277 302 308 302 296 290 288 297 306 294 283 279 278 280 277 273 270 259 240 234 226 214 207 204 201 198 194 192 195 196 196 195 191 191 183
167 169 173 174 173 173 174 176 176 176 174 175 177 175 177 181 179 181 186 186 185 188 191 194 198 193 190 193 200 206 205 205 204 208 214 213 217 225 232 233 229 225 226 227 239 250 239 232 241 264 285 299 294 283 281 284 291 315 314 285 274 277 278 278 274 269 266 262 256 252 240 221 211 209 207 204 201 194 192 197 200 197 195 197 193
170 172 176 177 177 175 175 177 177 177 175 176 176 171 174 180 178 178 182 181 181 186 189 194 196 190 189 194 202 209 209 210 208 209 215 216 220 225 226 225 221 223 228 234 245 240 228 235 252 269 285 280 278 277 277 282 296 310 289 274 273 277 278 275 271 270 268 267 267 262 248 232 218 211 210 208 204 197 193 196 201 199 198 198 197
173 174 176 179 181 179 178 180 178 177 176 175 174 172 175 179 177 177 180 178 180 187 191 195 195 193 193 197 204 209 209 208 206 207 213 217 221 218 216 221 224 226 231 237 239 233 230 244 257 263 271 269 268 277 281 282 293 294 273 271 279 279 275 270 268 272 272 268 267 261 248 242 233 220 215 212 207 201 196 196 200 198 199 199 200
174 175 177 180 184 184 183 182 181 179 178 176 175 177 177 177 177 178 180 179 184 190 191 194 194 196 197 197 202 203 202 200 199 203 206 212 216 213 213 218 227 229 229 233 231 229 236 245 252 250 252 259 262 270 279 279 281 289 276 268 276 281 280 275 270 272 271 268 263 255 247 246 243 233 224 219 214 209 202 198 199 199 198 199 202
174 177 179 182 186 187 188 185 184 184 183 182 180 182 183 183 183 183 184 186 190 192 192 194 192 194 195 194 196 196 197 196 197 201 202 208 215 217 220 223 229 229 226 227 228 228 238 242 243 242 246 260 272 276 273 271 271 285 280 273 273 279 285 286 282 274 265 266 265 255 248 247 248 244 233 224 219 216 210 203 201 201 199 200 204
175 179 181 184 187 190 191 188 186 186 188 187 185 187 190 192 192 189 191 193 193 193 193 194 191 192 194 193 194 194 195 194 197 201 204 208 216 224 228 229 229 228 225 226 227 227 236 241 245 250 259 271 283 283 270 265 259 262 276 280 274 274 280 285 290 283 269 269 269 258 251 249 251 252 243 229 222 220 216 210 207 206 206 205 207
176 179 182 185 189 192 194 191 187 188 189 190 190 192 195 197 197 193 194 194 192 192 194 194 192 194 196 196 196 194 194 195 199 204 210 214 217 225 229 229 229 227 226 228 229 231 237 244 255 268 273 279 286 287 280 273 261 242 260 278 276 276 281 282 286 283 274 273 267 257 252 247 246 251 248 235 226 224 221 217 213 212 213 213 212
179 180 182 186 191 194 195 192 189 189 191 192 195 198 198 198 196 192 191 193 192 191 196 197 195 196 197 198 198 196 197 201 205 210 218 221 218 221 226 228 227 229 230 233 236 238 242 248 263 278 279 281 284 287 286 277 264 239 246 270 276 278 281 280 282 276 268 263 261 261 257 249 244 247 243 235 229 226 225 223 219 218 217 217 215
181 181 181 185 189 192 194 192 189 189 191 195 198 201 200 197 195 192 191 194 195 193 198 201 198 197 197 198 199 200 204 208 211 217 223 224 220 223 227 227 228 233 238 241 244 246 250 255 268 280 279 277 277 290 297 286 273 250 247 261 269 272 271 275 280 273 265 258 259 266 258 245 241 244 240 234 227 222 223 223 222 223 221 219 218
180 182 183 184 185 189 190 190 190 190 192 197 199 199 198 197 195 194 194 197 197 194 198 201 199 198 198 199 201 204 209 211 213 218 223 224 224 228 230 232 236 237 243 247 247 250 254 261 272 277 282 286 288 304 313 305 295 283 279 265 248 276 278 279 281 275 273 264 258 261 252 233 228 233 234 235 229 220 218 218 221 224 224 222 220
181 183 185 184 184 186 185 187 191 191 193 197 196 195 195 195 196 196 195 199 197 195 197 197 197 199 200 202 204 208 209 210 212 213 219 223 227 235 239 241 244 243 244 246 247 252 256 262 269 267 284 309 306 308 313 306 306 314 315 305 209 270 295 298 286 278 281 274 259 254 248 238 232 230 229 233 231 222 216 215 218 223 225 225 222
182 185 185 184 184 185 183 185 190 190 192 196 195 194 194 195 197 197 196 198 199 199 199 197 199 203 205 207 208 210 210 208 211 214 219 226 234 245 252 251 252 255 255 250 247 250 255 259 264 264 276 309 313 306 301 303 311 324 327 319 209 199 273 297 289 280 277 270 253 245 246 247 247 243 236 236 234 226 220 216 216 220 225 227 225
180 182 185 186 185 184 183 184 187 189 192 197 198 195 195 195 198 199 198 200 202 203 204 202 203 204 205 208 208 210 210 210 212 218 225 235 248 257 260 261 261 262 257 247 239 239 245 253 266 273 273 293 316 314 297 307 316 319 316 318 330 168 180 265 285 290 280 268 250 240 245 246 244 243 240 238 236 229 224 220 217 219 224 227 228
178 180 184 186 185 183 184 185 187 189 192 198 199 196 196 196 197 200 200 202 204 204 206 207 205 204 203 206 207 207 209 211 214 222 231 241 256 263 265 264 259 245 230 223 226 228 230 247 270 284 286 300 315 311 300 318 325 320 311 311 326 328 167 240 275 306 315 284 253 236 242 259 247 238 234 234 233 227 224 223 222 222 223 226 228
180 181 182 184 186 185 183 186 189 190 194 198 199 197 198 199 199 199 199 201 204 205 207 209 207 204 204 205 205 205 205 208 212 220 232 242 246 251 260 255 230 184 180 186 207 221 231 252 273 286 302 323 316 296 300 322 329 324 314 310 319 312 319 314 292 334 346 331 267 235 246 260 251 235 228 229 229 226 225 225 226 226 225 224 226
185 183 183 182 185 187 184 184 189 190 194 198 198 197 198 198 196 195 196 197 200 203 205 207 205 202 202 203 203 203 205 207 209 217 231 237 231 234 249 230 192 173 174 178 200 234 267 263 272 291 311 334 312 291 305 322 327 321 308 314 323 309 328 337 343 7 9 30 23 334 282 255 241 237 230 229 231 232 232 228 230 232 229 226 227
194 187 185 184 184 187 186 185 187 188 193 197 196 195 193 191 190 192 194 195 198 200 200 200 199 199 198 198 201 203 205 207 209 220 230 229 222 223 248 216 202 195 189 193 211 261 295 257 265 305 322 333 307 298 315 318 320 317 304 308 316 307 325 344 8 24 20 20 10 357 353 327 260 265 249 239 234 231 230 226 229 234 233 231 231
212 198 186 185 184 185 186 186 186 186 191 196 193 189 186 186 189 191 193 196 197 195 193 195 195 197 198 197 200 202 203 205 209 220 225 222 215 206 183 181 199 198 187 191 209 271 292 223 236 323 322 324 306 301 307 311 315 315 307 306 312 312 314 330 358 7 5 13 13 359 358 8 360 334 297 265 241 229 228 227 230 232 231 231 231
215 220 189 183 184 183 184 187 187 188 191 194 191 185 184 187 190 192 195 197 197 195 195 197 198 199 202 201 201 204 207 209 212 217 218 218 212 199 185 179 197 201 189 191 215 267 278 216 233 312 308 303 296 294 294 303 309 310 310 310 313 312 307 310 327 342 351 15 28 15 360 357 346 334 316 275 243 235 232 233 235 231 226 226 227
201 230 200 186 187 183 184 186 186 189 190 192 191 188 190 191 191 195 197 196 196 198 200 202 203 204 205 206 204 206 210 214 219 220 217 218 214 203 200 195 203 215 210 206 225 255 271 272 290 296 293 290 289 292 291 294 299 305 315 317 317 314 305 306 315 328 341 7 28 21 6 352 336 325 311 264 236 235 228 230 234 229 223 223 225
187 213 206 189 189 187 186 186 184 187 189 191 191 191 196 195 193 197 199 198 199 202 208 210 210 211 214 215 212 209 210 215 220 221 216 215 215 211 206 200 198 207 211 214 233 252 265 276 286 284 285 290 290 292 288 283 287 302 322 323 327 329 314 310 318 323 336 5 11 4 4 359 346 337 319 223 213 219 215 219 224 223 222 223 225
183 199 202 189 188 189 189 187 184 185 188 191 191 190 193 193 193 198 199 200 201 204 212 214 210 213 221 223 220 215 212 215 219 219 216 214 216 218 213 208 206 211 222 233 247 257 265 270 269 268 284 292 285 279 272 266 269 292 342 329 326 345 330 325 338 329 323 330 328 338 354 0 360 6 39 151 185 204 210 213 217 222 222 221 223
189 196 196 188 187 188 188 187 185 187 189 191 194 193 190 189 189 194 196 199 202 205 211 210 209 215 221 220 219 216 214 217 219 219 218 215 218 221 219 217 217 224 238 249 258 263 264 265 263 266 280 285 278 270 262 258 254 248 289 307 284 12 322 319 344 328 307 294 298 319 334 345 4 20 24 346 323 275 246 235 231 230 225 221 224
197 194 190 186 185 187 188 188 187 188 189 190 193 196 194 191 190 189 192 199 205 208 210 210 213 217 215 214 216 215 215 217 220 222 223 220 219 221 222 223 222 223 236 249 257 261 261 262 267 275 284 284 274 265 258 257 250 239 235 245 352 359 274 298 341 327 306 289 288 308 313 316 342 357 349 332 315 290 275 262 248 239 229 221 223
198 192 189 184 183 186 187 187 187 187 189 190 191 195 198 197 195 192 193 198 204 209 208 209 214 215 214 217 217 214 213 216 218 220 223 223 222 222 223 223 220 222 233 243 245 251 258 262 270 282 292 290 271 256 246 245 249 246 246 253 270 275 267 318 4 325 320 293 278 314 321 318 327 338 354 348 324 294 280 273 264 253 236 223 225
197 192 187 182 181 182 184 184 185 186 187 188 190 193 197 199 199 200 201 200 203 208 208 209 215 218 219 224 219 213 213 215 217 220 220 220 218 217 219 219 219 227 234 236 236 244 255 262 272 281 286 284 264 246 236 241 254 254 250 261 274 271 267 279 225 252 318 288 276 315 328 336 336 339 349 348 332 294 275 273 268 260 243 233 237
196 192 184 180 180 180 181 183 184 186 187 188 191 193 194 198 201 204 208 206 206 208 208 210 216 217 217 220 217 213 213 215 219 221 217 211 209 210 218 222 225 233 240 241 237 239 251 263 273 276 274 264 250 246 250 259 274 277 271 280 289 274 258 260 250 239 216 256 296 312 320 333 339 345 354 350 338 295 275 278 261 249 240 237 238
188 187 181 179 180 180 181 183 183 186 188 189 192 193 194 198 203 205 208 208 210 211 207 210 216 215 214 217 215 213 213 214 220 224 217 210 211 217 225 229 230 237 247 248 240 238 252 265 268 268 265 256 246 249 258 268 277 289 295 301 304 278 256 260 261 247 181 220 290 303 317 329 341 355 359 349 337 320 303 289 252 238 235 232 229
180 180 178 176 177 179 180 182 184 186 189 191 193 194 194 200 206 206 203 200 208 210 207 209 212 212 214 216 214 212 212 213 217 222 218 215 219 226 233 234 232 238 251 252 242 241 254 268 263 258 258 253 250 256 264 274 279 283 291 301 304 280 261 257 243 241 226 232 271 278 293 310 322 329 338 338 322 315 312 296 250 233 229 224 227
176 174 174 173 174 178 180 182 184 186 188 190 192 193 196 202 208 208 205 197 198 203 203 202 197 192 198 206 208 209 211 213 215 217 218 219 223 230 239 237 234 240 252 255 248 243 251 265 260 252 257 259 259 262 267 275 280 278 280 290 299 291 282 275 259 246 229 216 237 269 280 291 292 301 320 325 304 299 294 288 265 233 221 220 226
Height
813 814 816 818 820 821 822 823 825 826 827 828 829 830 831 832 833 834 835 836 836 837 837 837 838 838 838 838 839 839 840 840 840 839 840 841 842 842 842 842 842 842 842 842 843 843 843 843 843 844 844 844 844 844 845 845 845 845 846 845 845 845 845 845 846 846 846 846 846 846 846 846 846 847 847 848 849 849 850 850 850 851 852 852 853
810 814 816 818 820 821 823 824 826 827 828 829 829 831 832 833 834 835 836 837 837 838 838 839 839 839 840 839 840 840 840 840 841 841 841 841 842 843 843 843 843 843 843 843 843 844 844 844 845 845 845 845 845 845 845 846 846 847 847 846 846 845 846 846 847 847 847 847 847 847 847 847 847 848 848 849 850 850 850 851 851 852 853 853 854
810 814 816 818 820 821 823 824 826 827 828 829 830 831 832 834 835 836 836 838 838 839 839 839 840 840 840 841 841 841 841 841 841 842 842 842 843 844 843 843 843 844 844 844 844 845 845 845 845 845 846 846 846 847 847 847 847 848 847 847 847 847 847 847 848 848 848 848 848 848 848 848 848 849 849 849 850 851 851 852 852 853 853 854 854
810 813 816 818 820 821 823 824 825 827 828 829 831 832 833 835 835 837 837 838 839 839 840 840 841 841 841 841 841 841 841 842 842 843 843 843 843 844 844 844 844 845 845 845 845 846 846 846 846 846 847 847 847 847 848 848 848 848 848 848 848 848 848 848 848 849 849 849 849 849 848 849 849 849 850 850 851 851 852 852 853 853 854 854 855
811 813 816 818 820 822 823 824 826 827 828 830 831 832 834 835 836 837 838 839 839 840 840 841 841 842 842 842 842 842 842 842 843 844 844 844 844 844 845 845 845 845 846 846 846 847 847 847 847 847 848 848 848 848 848 848 848 849 849 849 849 849 849 849 849 849 850 850 849 849 849 849 850 850 850 851 851 851 852 853 853 854 854 855 856
811 813 816 818 820 822 823 825 826 827 829 830 832 833 835 836 837 837 838 839 840 841 841 842 842 843 843 842 842 842 843 843 843 844 845 845 844 844 845 845 846 846 846 847 847 847 847 848 848 848 848 849 849 849 849 849 849 849 849 849 849 850 849 850 850 850 850 850 850 850 850 850 850 851 851 851 851 852 852 853 854 854 855 856 856
811 814 816 818 820 822 823 825 826 828 829 830 832 834 835 837 838 838 839 840 840 841 842 842 843 843 843 843 843 843 844 844 844 844 845 845 845 844 845 845 846 847 847 847 847 848 848 848 848 848 849 850 850 849 849 849 849 849 850 849 849 850 850 850 850 850 851 851 851 851 851 851 851 851 852 852 852 852 853 854 854 855 855 856 857
812 814 816 818 820 822 824 825 826 828 829 831 833 834 836 837 838 839 840 840 841 842 842 843 843 843 843 843 843 844 844 844 844 844 845 845 845 845 845 846 847 847 848 848 848 848 848 848 848 848 849 850 850 850 850 849 849 850 850 850 850 850 850 851 851 851 851 852 852 852 852 852 852 852 853 853 853 853 853 854 855 855 855 856 858
813 815 816 818 820 822 824 825 827 828 830 831 833 835 836 837 839 839 840 841 841 842 843 843 843 844 843 843 844 844 844 845 845 845 845 845 846 845 845 846 847 848 848 849 849 849 849 849 849 849 849 850 850 850 850 850 850 850 850 850 850 850 851 851 852 852 852 852 852 853 853 853 852 852 854 854 854 854 854 855 855 856 856 857 858
813 815 817 818 820 822 824 825 827 829 830 831 833 835 836 838 839 840 841 841 842 842 843 843 844 844 843 844 844 844 845 845 846 845 845 846 846 846 846 846 847 848 849 849 849 849 849 849 849 849 850 850 850 850 850 850 850 850 850 851 850 851 851 852 852 852 852 852 853 853 853 853 853 853 854 855 855 855 855 856 856 856 856 857 858
813 815 817 819 821 822 824 825 827 829 830 832 833 835 836 838 839 840 841 841 842 842 843 844 844 844 844 844 844 844 845 845 846 846 846 846 846 846 847 847 848 849 849 849 849 850 850 850 850 850 850 850 850 850 850 850 850 850 850 851 851 851 852 852 852 852 852 852 853 853 853 853 854 854 854 855 855 856 856 856 857 857 857 858 859
813 815 817 819 821 822 824 825 827 829 830 832 833 835 836 837 839 840 841 841 842 843 843 844 844 844 844 844 844 845 845 845 845 846 846 846 846 846 847 847 848 849 849 850 850 850 850 850 850 850 850 850 850 849 850 850 850 851 851 852 852 852 852 852 852 852 852 853 854 854 853 854 854 854 855 855 856 856 856 857 858 858 858 859 859
813 815 817 819 820 822 823 825 827 828 830 831 833 834 836 837 839 840 841 842 842 843 843 844 844 845 845 845 845 845 845 845 845 845 846 846 847 847 847 848 848 849 850 850 850 850 850 850 850 850 850 850 850 850 849 850 850 851 851 852 852 852 852 852 853 853 853 853 854 854 854 854 855 855 855 856 856 857 857 858 859 859 859 860 860
813 815 817 819 820 822 823 825 826 828 829 831 833 834 836 837 838 840 841 842 842 843 844 844 845 845 845 845 845 845 846 845 845 845 846 847 847 848 847 848 849 850 850 850 850 850 850 850 850 850 850 850 850 850 849 850 850 851 851 852 852 852 852 852 852 853 853 853 853 854 854 855 855 855 856 856 856 857 857 858 859 860 860 860 861
813 814 817 819 820 822 823 825 826 827 829 830 833 834 836 837 838 839 840 841 842 843 844 845 845 845 845 845 846 845 846 845 846 846 846 847 848 848 848 848 849 850 850 850 850 850 850 850 850 849 850 850 851 851 850 851 851 851 851 851 852 852 852 852 852 853 853 853 853 853 854 855 855 856 856 857 857 857 858 858 859 860 860 861 862
814 815 817 818 820 822 823 825 826 827 829 831 832 834 836 837 838 839 840 841 842 843 844 845 844 845 845 845 846 845 845 845 846 845 846 847 848 848 848 848 848 849 850 850 850 850 850 850 850 849 850 850 851 851 851 851 851 851 851 851 852 852 852 853 853 853 853 853 852 853 853 854 855 855 856 857 857 857 858 858 859 860 861 861 862
814 815 817 818 820 821 823 824 826 828 829 831 832 834 835 837 838 839 840 841 842 843 844 844 844 845 845 845 845 845 845 845 846 845 846 846 847 848 848 848 848 849 849 850 850 850 850 849 849 849 850 850 851 852 851 852 852 852 852 851 851 851 852 852 852 852 853 853 852 853 853 853 854 855 856 856 857 858 858 858 860 861 862 862 862
814 815 816 818 819 821 823 824 826 827 829 830 832 834 835 836 838 839 840 841 841 843 843 844 844 845 845 845 844 845 845 845 845 845 846 846 847 848 848 848 848 849 849 849 850 850 849 849 849 849 850 850 851 852 852 852 853 853 852 852 851 851 851 851 851 852 852 852 852 852 852 853 853 854 855 856 857 857 858 858 859 861 862 862 862
815 816 816 818 819 821 822 824 825 827 828 830 831 833 835 836 837 838 839 840 841 842 843 844 844 845 845 845 844 844 845 845 845 845 846 846 847 847 847 848 848 849 849 849 849 849 849 849 849 850 850 850 851 852 852 852 852 853 853 852 851 850 849 850 850 850 851 851 852 852 852 853 853 854 854 856 856 856 857 858 859 860 861 862 862
815 816 817 818 819 821 821 823 825 826 828 829 831 832 834 835 836 838 838 840 840 841 842 843 843 844 844 844 844 844 845 845 845 845 845 846 846 847 847 847 848 848 849 849 849 849 849 849 850 850 850 851 851 852 852 852 852 852 852 851 851 849 849 849 849 849 850 850 851 851 852 852 853 853 853 854 855 856 856 857 858 860 860 862 862
816 816 817 818 818 820 821 823 824 826 827 828 830 831 833 834 836 837 838 839 840 841 842 842 843 843 844 844 844 844 844 844 844 844 845 846 846 846 846 847 847 848 848 848 848 849 849 849 850 850 850 851 851 851 851 851 851 851 851 851 850 849 848 848 848 848 849 849 850 851 852 852 852 852 853 853 854 855 856 857 858 859 860 861 861
815 816 816 817 818 819 820 822 823 825 826 827 829 831 833 833 835 836 837 839 839 840 841 841 842 842 843 843 843 843 843 844 843 844 845 845 845 846 846 846 847 848 848 848 848 849 849 849 849 850 850 851 851 851 851 850 850 851 850 849 849 848 848 848 847 847 847 848 849 850 851 851 852 852 852 852 853 854 855 856 857 858 859 859 860
814 815 816 817 818 819 820 821 823 824 825 827 828 830 832 833 834 835 836 838 838 840 840 841 841 842 842 842 843 843 843 843 843 844 844 845 845 845 846 846 847 847 847 848 848 848 848 848 849 850 850 851 851 851 850 850 850 850 849 848 848 848 848 847 846 846 847 847 848 849 850 851 851 851 851 851 852 852 853 855 856 856 857 858 859
813 814 815 817 818 819 820 821 823 824 825 826 828 830 831 832 833 835 836 837 838 839 840 840 840 841 841 842 842 842 843 843 843 844 844 844 845 845 846 846 847 847 847 847 848 848 848 848 849 850 850 851 851 851 850 850 850 849 849 849 848 847 847 847 846 846 846 847 848 849 849 850 851 850 850 850 850 851 852 853 854 855 856 857 858
812 814 814 816 817 818 820 821 823 824 825 826 827 829 830 832 833 834 835 836 837 838 839 839 840 841 841 841 842 842 842 842 843 843 844 844 844 845 845 845 846 846 846 846 847 847 847 848 848 849 850 850 851 851 850 850 850 849 848 848 848 846 847 846 845 845 845 846 847 848 848 849 849 849 849 849 850 850 851 851 853 853 854 856 858
812 813 813 815 816 818 819 820 822 823 824 826 827 828 829 831 832 833 834 835 836 837 838 838 839 840 840 841 841 841 842 842 843 843 843 844 844 844 844 845 845 845 846 846 846 847 847 847 847 848 849 850 850 850 850 849 850 850 847 847 848 846 846 846 845 845 845 845 846 846 847 847 847 848 848 848 849 850 850 851 852 853 854 855 857
811 812 812 814 815 816 818 819 821 822 824 825 826 827 829 830 831 832 834 835 835 836 837 838 838 839 840 841 841 841 841 842 842 842 843 844 844 844 844 844 844 844 845 845 846 846 846 846 846 847 848 848 848 848 849 848 850 851 848 847 847 846 846 846 845 845 845 845 844 844 845 845 846 846 846 847 847 848 849 850 851 852 853 855 856
809 811 812 813 814 815 817 818 820 822 823 824 826 827 828 829 830 832 833 834 835 836 836 837 838 839 840 840 840 840 841 841 842 842 843 843 844 843 843 843 843 844 844 844 845 845 845 845 845 846 847 847 847 847 847 847 850 851 849 846 846 845 844 845 844 844 844 844 842 842 842 842 843 844 845 845 846 847 848 849 851 852 853 854 856
808 809 811 812 813 815 816 818 819 821 822 823 825 826 827 829 830 831 832 833 834 835 836 837 838 838 839 840 840 840 840 841 842 842 843 843 843 843 843 843 843 843 843 844 844 844 844 844 844 845 845 846 846 846 845 846 848 850 848 846 846 845 843 843 843 843 843 843 841 841 842 842 842 843 843 843 844 844 845 847 849 851 852 853 854
807 808 810 811 813 814 815 817 818 820 822 823 824 825 827 828 829 831 831 833 834 835 836 836 837 838 839 839 840 840 840 841 842 842 842 843 843 843 842 842 842 843 843 843 843 843 843 843 843 844 845 845 845 845 844 845 846 848 848 846 845 844 843 842 841 841 841 842 841 842 843 843 843 843 842 842 842 842 843 845 847 849 850 851 852
806 807 809 810 812 813 814 816 818 820 821 822 823 824 826 827 828 830 831 832 833 834 835 836 837 837 838 839 839 840 841 841 841 842 842 842 842 842 842 842 842 842 842 842 842 842 842 843 843 843 844 844 844 844 844 844 844 845 846 846 845 843 841 841 840 839 840 840 840 841 843 843 843 843 842 842 841 841 841 842 844 846 848 849 850
805 805 807 809 811 812 814 816 817 819 821 822 823 824 825 827 828 829 831 832 833 834 835 836 836 837 838 839 839 840 840 841 841 842 842 842 842 841 841 842 842 841 841 842 842 842 842 842 842 843 843 843 843 843 843 843 843 844 844 844 844 842 840 840 839 839 838 839 839 840 841 841 842 842 841 841 841 840 840 841 842 844 846 847 848
803 804 806 808 809 811 813 815 817 818 820 821 822 823 825 827 828 829 830 831 832 833 834 835 836 837 837 838 839 839 840 840 841 841 841 841 841 841 841 840 841 841 841 841 841 841 841 841 841 842 843 843 843 843 843 842 842 842 842 843 843 842 841 840 839 839 839 838 838 839 839 840 839 839 840 840 840 840 839 840 841 843 844 846 846
802 804 805 806 808 810 812 814 816 818 819 820 821 822 824 826 827 828 830 831 832 833 834 835 835 836 837 837 838 839 839 840 841 841 841 841 841 840 840 839 840 840 840 840 840 841 841 840 840 841 842 842 842 842 842 841 841 840 840 841 841 841 841 842 840 839 838 838 837 838 838 838 838 838 839 839 839 839 839 839 840 841 842 844 845
801 803 804 805 807 809 811 813 814 817 818 819 820 821 823 824 826 827 829 830 831 832 833 834 835 835 836 837 837 838 839 839 840 840 840 841 840 840 839 839 839 839 839 839 840 840 840 839 839 840 841 841 841 841 841 840 839 839 839 839 839 840 841 842 840 838 837 836 836 837 837 837 837 837 837 838 838 837 838 838 839 840 841 842 843
799 802 803 804 807 808 810 811 813 815 817 818 819 821 822 824 825 826 828 829 830 831 832 833 834 835 835 836 837 837 838 839 840 840 840 840 840 840 839 838 838 838 838 838 839 839 839 839 839 840 840 840 840 840 840 839 838 838 838 838 837 838 839 839 839 838 837 836 835 835 836 836 836 836 836 836 836 836 836 837 837 838 840 841 841
799 800 802 804 805 807 808 810 812 814 815 817 819 820 821 823 824 826 827 828 829 830 831 832 833 834 834 835 836 836 837 838 839 839 840 840 840 840 839 838 838 838 838 838 838 838 839 839 839 839 839 839 839 839 839 838 837 837 837 837 836 836 837 838 837 837 836 835 835 834 834 835 835 835 834 835 834 834 835 835 836 837 838 840 840
802 800 801 803 804 805 807 809 811 813 815 816 818 819 820 822 824 825 826 827 828 829 830 831 832 833 833 834 835 835 836 837 838 838 839 839 839 838 837 837 838 838 838 838 838 838 838 839 838 838 838 838 838 838 838 837 836 836 835 835 835 835 836 836 836 836 836 835 834 834 833 833 834 833 833 833 833 833 834 834 835 836 837 839 839
805 803 801 802 803 805 806 807 809 811 814 815 817 819 820 822 823 824 826 827 827 828 829 830 831 832 832 833 834 834 835 836 837 837 838 838 838 838 837 837 837 838 838 837 837 837 838 839 838 838 837 838 837 837 837 836 835 834 834 834 834 834 835 835 835 835 835 835 834 833 833 832 832 832 832 832 832 832 833 834 834 835 836 837 838
805 806 802 802 803 804 805 806 808 810 812 814 816 818 819 821 822 823 824 825 826 827 828 829 830 831 831 832 833 833 834 835 835 837 837 837 837 837 837 837 837 837 837 837 837 837 838 838 838 838 837 837 837 836 836 835 834 833 832 832 833 833 833 834 834 835 835 834 833 833 832 832 831 831 831 831 831 831 832 833 833 834 835 835 836
800 806 804 801 802 803 804 805 806 809 811 813 814 815 817 818 820 821 822 823 825 826 827 828 829 830 831 831 832 832 833 833 834 835 836 836 837 837 837 837 837 837 837 837 837 837 837 838 838 837 837 836 836 836 835 835 834 833 832 831 831 832 832 833 833 833 834 833 833 833 832 832 831 831 830 830 830 831 831 832 832 833 834 834 835
792 802 802 800 801 802 803 805 806 808 809 811 813 814 815 816 818 819 820 822 823 824 825 826 828 829 830 830 831 831 832 832 833 834 835 835 835 836 836 837 837 837 837 837 837 837 837 837 837 837 836 836 836 835 835 835 835 833 832 832 831 831 831 831 832 832 832 832 832 832 832 831 831 830 830 830 830 830 831 831 831 832 833 834 834
787 795 798 798 799 800 802 803 805 806 808 810 812 813 815 816 818 818 820 821 822 823 825 825 827 828 828 829 829 830 831 831 832 833 834 834 835 835 835 836 836 837 837 837 837 837 836 836 836 836 836 836 835 835 834 834 834 834 833 834 834 833 832 830 830 831 831 831 831 831 831 831 831 830 830 830 830 830 830 830 831 831 832 833 834
787 791 794 795 796 798 800 802 803 805 807 809 811 813 815 816 818 819 820 821 822 823 824 825 826 827 827 827 828 829 830 830 831 832 833 833 834 834 834 835 835 836 837 837 837 836 836 835 835 835 835 835 834 834 834 834 834 834 834 835 835 837 837 832 830 830 830 830 830 830 830 830 830 830 830 830 830 830 830 830 830 831 831 832 833
787 789 789 791 793 796 798 800 802 804 805 808 810 812 814 816 817 818 820 821 822 822 823 824 824 825 826 826 827 828 829 830 830 831 831 832 833 833 834 834 835 836 836 836 837 836 836 835 835 834 834 834 833 833 834 833 833 833 834 835 836 839 838 833 831 831 829 829 830 830 830 831 830 830 830 830 830 830 830 830 830 830 830 831 832
786 787 787 789 791 793 796 798 800 802 804 806 808 810 812 814 815 816 817 818 819 820 821 821 822 823 824 825 826 827 828 829 829 830 830 831 832 833 834 834 835 835 835 836 836 836 835 835 834 834 834 834 833 833 833 833 833 833 833 833 834 836 834 832 834 834 831 829 829 830 830 830 830 830 829 829 829 829 829 829 829 830 830 831 831
784 785 787 788 790 792 794 797 799 801 803 805 807 809 810 812 814 814 815 816 817 818 819 820 821 822 823 824 825 826 827 828 828 829 829 830 831 832 833 834 834 835 835 835 835 835 835 834 834 834 833 833 833 832 832 832 832 832 833 833 832 832 832 832 834 835 834 832 829 829 830 829 829 829 828 828 828 828 829 829 829 830 830 830 830
783 785 786 787 788 790 793 795 798 800 802 804 806 807 809 811 812 813 814 815 816 817 818 819 820 821 822 823 824 825 826 827 828 828 829 829 830 831 832 833 834 834 834 834 834 834 834 834 833 833 833 833 833 832 832 832 832 832 833 833 832 832 832 832 832 833 835 835 831 829 828 828 828 828 828 828 828 828 828 829 829 829 829 829 829
781 783 784 786 787 789 792 794 797 799 801 803 805 806 808 810 811 813 814 815 816 817 817 818 819 820 821 822 823 824 825 826 827 828 829 829 830 830 831 832 833 834 834 834 833 833 833 833 832 832 832 832 832 832 832 832 832 832 832 833 833 832 832 832 832 831 832 834 833 829 828 827 826 826 827 827 827 827 828 828 828 829 829 829 829
778 782 783 784 786 788 791 793 795 798 800 802 804 805 807 809 810 812 813 814 815 815 817 818 818 819 820 821 822 823 824 825 826 827 828 829 829 830 830 831 832 832 833 833 833 833 832 832 832 832 832 832 832 832 832 832 831 831 832 832 833 833 832 832 832 832 831 832 832 830 828 827 827 826 826 826 827 827 827 828 828 828 828 828 828
778 781 782 783 785 788 790 792 794 797 799 800 802 804 806 808 809 810 811 812 813 814 815 816 818 818 819 820 821 822 823 824 825 826 827 828 829 829 829 830 830 831 832 832 832 832 832 832 831 831 831 831 831 831 831 831 831 831 831 831 832 832 832 832 831 831 830 831 831 830 828 828 827 826 825 826 826 827 827 827 827 827 827 827 827